Lapse_Rate
4.7 4.8 4.6 4.7 4.9 5.0 5.0 5.2 5.0 4.9 5.2 5.5 5.7 5.7 5.8 5.8 5.6 5.6 5.7 5.8 5.9 5.9 6.0 6.1 5.9 5.8 5.8 5.9 6.6 5.9 5.8 6.0 5.8 5.6 5.9 5.8 5.8 5.8 4.9 5.2 5.1 4.8 5.3 5.1 5.3 6.0 6.3
4.7 4.8 4.9 5.0 5.0 5.4 5.4 5.5 5.4 5.5 5.8 6.1 6.2 6.0 6.0 6.0 6.0 6.0 6.1 6.0 6.0 6.1 6.1 5.9 6.0 6.0 5.9 6.1 6.3 6.2 6.2 6.3 6.0 5.7 5.9 5.8 5.7 5.6 4.9 4.9 5.0 5.2 4.9 5.1 4.8 5.1 6.0
5.0 5.1 5.0 5.2 5.4 5.4 5.6 5.7 5.7 6.0 6.2 6.2 6.0 6.1 6.0 6.0 5.9 5.9 5.9 5.9 6.0 6.0 6.0 5.9 5.7 5.7 5.9 6.3 5.6 5.7 6.2 6.1 6.0 5.9 5.8 5.8 5.7 4.9 4.7 4.7 4.6 4.8 4.8 4.9 4.9 4.9 5.7
5.2 5.3 5.4 5.6 5.5 5.7 5.8 5.9 6.0 6.2 6.2 6.1 6.0 6.0 5.9 5.9 5.9 5.9 5.9 5.9 5.8 5.8 5.8 5.9 5.9 5.8 5.9 5.9 5.6 5.8 6.0 6.4 6.3 6.4 6.2 5.9 5.8 5.5 4.6 4.9 4.6 4.9 5.0 5.2 5.5 5.1 5.2
5.4 5.6 5.6 5.6 5.7 5.9 6.1 6.2 6.3 6.3 6.1 6.0 6.0 6.0 6.1 6.1 6.1 6.2 6.2 6.1 5.9 5.9 6.0 6.2 6.2 6.3 6.5 6.2 6.1 6.2 6.4 6.3 6.7 6.3 6.5 6.2 5.8 5.5 4.9 4.9 5.4 5.3 6.0 5.7 5.8 5.3 5.5
5.6 5.7 5.7 5.7 6.0 6.2 6.4 6.4 6.4 6.2 6.1 6.2 6.3 6.3 6.2 6.2 6.2 6.2 6.2 6.2 6.1 6.3 6.6 6.6 6.7 7.2 7.0 6.7 6.8 6.2 5.9 6.2 6.6 6.8 6.4 6.2 5.9 5.2 5.2 5.4 5.7 6.2 5.9 6.0 6.0 6.2 5.5
5.7 5.7 5.8 6.0 6.3 6.4 6.5 6.5 6.3 6.2 6.2 6.3 6.3 6.3 6.3 6.2 6.1 6.0 6.1 6.2 6.5 6.6 6.9 7.0 7.2 7.3 7.8 7.0 6.7 6.4 6.8 6.2 6.5 6.3 6.2 6.5 5.7 5.4 5.8 5.8 6.0 6.4 6.4 6.4 6.5 5.8 5.3
5.6 5.8 6.0 6.2 6.4 6.6 6.6 6.3 6.3 6.4 6.4 6.4 6.4 6.5 6.4 6.1 5.9 5.9 6.0 6.2 6.6 6.3 6.9 7.7 7.6 7.6 7.2 6.3 6.7 7.2 6.3 6.3 6.3 6.3 6.1 6.1 5.6 6.1 6.3 6.1 6.4 6.6 6.7 6.5 6.2 5.6 5.2
5.7 6.0 6.3 6.5 6.7 6.6 6.4 6.5 6.5 6.5 6.5 6.5 6.5 6.4 6.2 6.2 6.0 6.0 6.2 6.4 6.3 6.0 6.0 7.7 7.1 7.0 6.7 6.6 6.4 7.3 6.7 6.9 6.3 6.6 6.0 6.3 6.9 6.7 6.3 6.4 6.5 6.6 6.7 6.8 6.3 5.9 5.5
6.0 6.2 6.6 6.6 6.6 6.5 6.6 6.7 6.6 6.6 6.6 6.5 6.5 6.3 6.2 6.4 6.2 6.4 6.4 6.4 6.2 6.0 6.0 6.8 6.8 6.8 6.3 6.1 6.3 6.9 7.1 7.0 6.8 7.0 6.6 6.3 6.5 6.5 6.2 6.7 6.8 7.0 7.0 6.4 6.1 6.0 6.7
6.2 6.6 6.6 6.6 6.6 6.7 6.8 6.7 6.7 6.7 6.6 6.5 6.3 6.2 6.2 6.3 6.2 6.3 6.3 6.3 6.0 5.9 7.0 7.2 6.9 7.2 6.8 6.5 6.4 6.9 7.5 7.2 7.0 7.2 6.6 6.6 6.5 6.4 6.7 7.0 7.2 7.3 6.7 6.6 6.4 6.3 6.1
6.5 6.7 6.8 6.8 6.8 6.9 6.8 6.8 6.9 6.8 6.7 6.4 6.0 6.1 6.2 6.2 6.0 6.1 6.0 5.9 5.7 5.9 7.3 7.6 7.5 7.1 7.2 6.8 6.8 7.1 7.3 6.7 7.3 7.4 7.2 6.8 6.9 6.5 6.5 7.3 7.0 6.3 6.5 6.5 6.4 6.5 6.6
6.7 6.8 6.9 6.8 6.9 6.9 6.9 7.0 6.9 6.8 6.7 6.1 5.8 5.9 5.9 5.9 5.9 5.8 5.7 5.6 5.8 6.7 8.1 8.1 7.2 7.1 6.9 7.2 7.6 7.2 6.8 6.6 7.2 7.2 7.3 6.8 6.8 6.8 6.4 6.9 6.4 6.5 7.2 7.7 7.1 6.5 7.7
6.8 6.9 6.9 6.9 7.0 7.0 7.0 7.0 6.9 6.9 6.5 5.9 5.7 5.9 5.8 5.6 5.4 5.4 5.4 5.3 6.7 8.4 8.3 7.6 7.2 7.4 7.2 7.0 7.6 7.5 7.0 7.1 7.8 8.0 7.9 7.3 6.8 6.9 6.7 6.8 7.1 7.2 7.5 8.2 8.0 8.0 8.4
6.9 7.1 7.0 6.9 6.9 7.0 7.0 7.0 6.9 6.9 6.3 5.8 5.8 5.8 5.6 5.4 5.4 5.3 5.7 6.8 8.3 8.2 7.5 7.0 7.2 7.7 6.8 6.3 7.1 7.8 7.3 7.5 7.7 7.7 8.3 7.8 7.3 7.0 7.3 7.5 7.5 7.0 6.7 6.7 6.6 6.5 7.1
7.1 7.2 7.0 7.0 7.0 7.0 7.1 7.0 6.9 6.8 6.1 5.9 5.9 5.8 5.6 5.5 5.6 5.8 6.6 7.5 7.6 7.2 6.9 6.9 6.7 6.6 5.8 6.1 6.5 7.9 7.6 7.6 7.8 7.9 7.8 8.0 7.2 7.0 7.1 7.3 7.2 6.9 6.6 6.5 6.5 7.2 7.4
7.3 7.1 7.0 7.0 7.1 7.1 7.0 7.0 6.9 6.6 6.0 6.0 5.9 5.8 5.7 5.7 5.8 6.4 7.3 7.4 7.1 6.7 6.2 6.2 6.6 5.7 5.7 5.8 6.1 6.9 7.7 7.5 7.6 7.9 8.3 8.0 8.1 7.1 7.1 7.3 7.1 6.5 6.5 6.3 6.6 6.4 7.4
7.3 7.1 7.1 7.1 7.1 7.1 7.0 6.9 6.9 6.4 6.0 6.0 6.0 6.0 5.8 5.8 6.1 7.1 7.0 6.8 7.2 6.9 6.2 6.1 6.0 5.7 5.9 6.0 6.0 6.2 7.0 7.4 7.7 7.8 8.0 8.0 7.8 7.4 7.5 7.0 7.1 6.8 6.7 6.5 7.1 6.4 6.4
7.2 7.2 7.2 7.1 7.2 7.1 7.0 6.9 6.9 6.2 5.8 6.1 6.0 5.9 5.8 6.0 5.7 6.5 6.5 6.8 6.6 6.5 6.6 6.6 6.4 6.4 6.6 6.2 6.2 6.7 6.9 7.3 7.9 7.7 7.8 7.6 7.7 7.5 7.0 6.9 6.6 6.8 6.5 6.1 6.1 6.0 6.3
7.2 7.3 7.2 7.2 7.3 7.1 7.0 6.8 6.8 6.0 5.8 6.1 6.1 5.9 5.8 5.9 6.2 6.4 6.4 6.3 6.4 6.4 7.0 7.0 6.5 6.5 6.3 6.2 6.2 6.5 6.5 6.8 7.0 7.6 7.7 7.7 7.4 8.0 8.5 7.7 7.0 6.5 6.4 6.3 6.1 6.4 6.8
7.3 7.5 7.2 7.2 7.3 7.0 6.8 6.7 6.6 6.1 5.9 6.1 6.0 5.8 5.9 6.0 6.3 6.4 6.3 6.2 6.5 6.8 7.1 7.0 7.0 6.6 6.2 6.2 6.3 6.1 6.4 6.5 6.6 6.9 7.2 7.0 7.1 7.3 7.3 7.1 7.0 6.9 6.7 6.4 6.4 6.3 6.5
7.1 7.3 7.3 7.2 7.0 6.9 6.8 6.6 6.4 6.1 5.7 5.9 6.1 5.9 5.9 6.1 6.5 6.6 6.4 6.7 6.9 7.0 7.1 7.1 7.0 6.9 6.7 6.1 6.0 6.0 5.9 6.0 6.1 6.0 6.3 6.3 6.5 7.0 7.0 7.1 7.1 7.0 6.7 6.6 6.6 6.6 6.5
7.1 7.2 7.2 7.1 6.9 6.8 6.6 6.6 6.5 6.2 5.8 5.9 6.0 5.8 6.0 6.1 6.6 6.7 6.6 6.9 7.0 6.9 6.9 6.6 6.9 7.2 7.2 7.0 6.8 6.3 6.2 6.2 6.4 6.5 6.7 6.5 6.7 7.2 7.2 7.0 7.2 7.5 6.8 6.6 6.6 6.5 6.4
7.0 7.2 7.2 6.9 6.9 6.6 6.5 6.5 6.3 6.2 5.9 5.8 5.9 5.8 5.9 6.0 6.5 6.8 7.0 7.0 7.1 6.9 7.0 7.3 7.1 7.3 7.4 7.3 7.5 7.1 6.6 6.6 6.7 6.9 6.9 6.8 6.9 7.0 7.1 6.9 7.5 6.6 6.4 6.3 6.4 5.9 5.7
7.1 7.0 6.9 7.0 6.8 6.6 6.5 6.5 6.4 6.1 6.0 5.8 5.8 5.8 5.9 6.0 6.5 6.8 7.0 7.2 7.2 7.0 7.0 7.1 7.5 7.4 7.6 7.7 7.7 7.8 7.7 7.7 7.3 7.2 7.1 6.7 6.8 6.8 7.1 7.3 6.9 6.5 6.0 5.9 5.8 5.7 5.7
6.8 6.9 6.9 6.8 6.7 6.5 6.4 6.5 6.3 6.1 5.7 5.8 5.7 5.9 5.9 6.1 6.1 6.6 7.0 7.2 7.2 7.3 7.2 7.1 7.3 7.5 7.5 7.5 7.3 7.5 7.6 7.4 7.4 6.9 7.0 6.9 6.6 6.9 6.9 7.4 7.4 6.0 6.1 6.1 6.1 6.0 5.8
6.7 6.7 6.8 6.7 6.6 6.5 6.5 6.5 6.3 6.0 5.9 5.8 5.6 5.9 6.1 6.1 6.4 6.6 6.7 6.9 7.0 7.1 7.3 7.3 7.5 7.6 7.5 7.4 7.3 7.2 7.5 7.0 7.3 7.2 6.8 6.7 6.5 7.0 6.7 6.9 6.7 6.4 6.2 6.3 6.5 5.4 5.5
6.6 6.7 6.8 6.7 6.6 6.6 6.6 6.5 6.2 6.1 6.0 5.8 5.9 5.9 6.1 6.4 6.4 6.7 6.8 7.0 6.9 6.9 7.2 7.3 7.2 7.1 7.4 6.8 6.7 6.6 6.7 6.7 6.9 6.7 6.6 6.9 7.0 7.0 6.8 6.7 6.8 6.4 6.0 6.0 5.4 5.3 5.1
6.6 6.8 6.9 6.8 6.7 6.6 6.7 6.6 6.3 6.1 5.9 5.7 6.0 5.9 6.1 6.4 6.7 6.7 6.7 6.8 6.9 7.0 7.0 7.0 7.1 6.8 6.8 6.6 6.7 6.7 6.6 6.6 6.7 6.9 6.6 6.6 6.3 6.4 6.5 6.2 6.0 5.8 6.0 5.8 5.5 5.5 5.5
Wind_Speed
7 6 7 6 6 6 5 8 8 9 11 12 12 12 13 14 17 19 20 20 23 25 25 24 22 19 10 9 12 9 11 10 8 7 10 12 16 20 23 17 20 23 21 16 16 20 20
7 5 6 6 6 5 6 7 7 8 11 13 13 13 14 16 17 20 21 23 25 28 28 27 23 16 12 19 8 9 6 7 4 9 11 14 12 17 12 20 19 8 22 21 19 17 18
7 8 9 8 6 5 6 6 6 8 11 12 13 13 14 16 18 20 23 25 28 31 31 30 22 11 15 24 8 7 11 12 10 8 11 12 17 11 10 14 19 18 19 17 16 14 13
8 7 8 6 5 6 6 6 7 10 11 12 13 14 16 19 22 23 25 27 32 33 26 17 9 8 10 6 16 18 18 17 17 18 17 11 7 15 15 13 7 17 18 19 18 20 22
8 7 5 5 4 5 5 6 8 10 11 12 14 16 18 20 22 24 27 32 35 26 9 4 5 6 11 2 8 10 12 12 7 15 15 9 8 14 13 15 14 13 15 17 14 12 13
8 6 4 2 4 4 5 8 8 8 9 11 14 16 19 21 22 26 30 32 23 11 5 5 1 6 8 5 7 13 7 9 8 9 12 11 9 13 16 16 19 15 15 18 15 13 16
7 6 6 6 4 4 6 6 7 8 11 13 15 16 18 21 23 25 20 8 5 4 8 10 17 20 24 25 21 20 7 4 9 13 17 20 15 23 24 21 16 16 16 17 10 4 12
8 5 4 3 3 4 5 5 7 9 11 13 15 17 18 19 22 18 12 6 6 5 13 17 27 28 29 25 17 23 16 10 15 15 18 12 24 22 19 18 20 18 16 15 12 11 14
8 6 3 3 3 3 3 5 7 9 11 13 14 15 16 20 22 6 8 5 9 11 7 12 10 12 9 10 18 27 15 19 16 17 22 17 10 22 16 16 19 20 19 14 13 11 16
9 6 4 4 2 1 4 6 7 9 11 12 13 15 16 21 9 9 4 9 12 7 5 7 3 1 3 5 8 20 21 16 13 19 17 13 8 10 18 22 19 18 16 14 12 8 7
7 5 5 2 1 3 4 5 7 9 10 12 13 14 15 8 8 6 9 15 15 4 6 6 4 4 6 7 17 3 24 22 18 13 10 10 14 14 16 19 17 14 6 11 10 10 10
7 7 6 2 1 2 3 5 8 9 10 13 14 15 15 5 6 8 14 17 5 6 10 5 6 12 16 12 21 11 15 16 13 11 15 8 4 10 8 8 16 9 9 6 4 5 7
8 5 4 2 1 2 3 6 8 10 11 13 14 16 13 8 6 15 14 6 6 8 7 4 14 20 23 20 14 12 17 20 15 17 15 10 10 6 13 13 9 11 12 5 5 4 5
9 6 3 3 1 2 4 6 8 11 12 13 13 14 4 4 10 10 5 5 6 8 13 19 18 24 10 18 12 12 14 20 20 12 13 11 7 12 10 11 9 14 13 4 7 5 4
9 4 4 2 0 3 5 6 8 10 12 11 12 3 2 8 9 4 4 3 7 14 14 17 24 13 11 19 9 9 14 21 18 13 6 11 6 8 12 6 9 10 8 1 2 1 3
8 5 4 3 1 2 5 6 8 10 11 6 4 3 5 10 4 3 2 5 7 14 16 14 10 8 19 23 11 7 14 16 14 13 5 7 6 11 9 12 4 5 9 4 4 5 5
9 7 4 3 1 2 5 5 9 10 4 1 2 2 4 6 5 3 5 7 15 14 14 4 7 12 10 15 12 6 7 10 7 10 2 10 6 8 11 9 13 6 5 2 0 2 2
8 7 7 4 2 1 4 6 8 5 1 1 2 1 3 5 1 2 6 11 15 11 10 8 8 11 13 15 7 8 7 5 0 11 10 1 7 11 9 4 4 3 5 4 3 5 2
10 9 7 7 3 1 3 5 6 1 3 1 2 2 2 3 4 7 10 9 6 12 12 7 6 9 15 5 5 3 4 11 5 5 3 5 7 8 8 6 7 6 6 6 4 2 3
12 9 7 8 4 1 2 4 6 3 4 1 1 1 1 1 2 7 10 10 15 13 11 11 9 10 14 3 4 6 6 14 14 11 13 2 3 4 6 8 9 8 8 6 3 3 1
12 11 10 9 4 1 3 4 6 3 8 2 2 2 2 2 1 8 8 10 15 13 8 7 3 14 13 8 11 9 12 8 17 16 10 6 8 11 11 10 8 8 7 5 2 5 4
12 9 10 7 2 4 5 5 6 7 8 1 2 1 3 3 5 5 4 7 13 12 5 12 16 19 12 13 12 13 13 9 6 1 4 5 2 6 9 7 5 3 1 4 3 4 6
14 10 9 7 8 6 4 4 5 14 8 1 2 1 3 1 3 4 3 7 9 14 5 11 16 14 13 17 19 14 10 9 6 7 7 2 3 1 4 1 1 3 7 6 2 5 7
15 13 11 11 9 6 5 5 5 16 11 1 2 1 2 1 3 5 9 10 10 11 11 15 13 12 12 21 16 5 4 1 3 7 3 2 4 2 3 3 3 6 6 6 4 11 16
14 14 11 11 8 8 6 5 5 8 15 3 3 2 2 3 4 3 8 8 9 8 6 9 11 12 15 12 5 2 3 2 5 13 5 4 2 3 1 4 6 8 8 9 8 7 16
14 13 13 11 9 9 5 5 6 3 17 2 2 2 2 4 1 3 7 5 5 8 6 5 11 9 11 3 3 5 4 4 3 3 6 4 4 2 0 2 3 7 11 10 8 2 15
14 14 14 13 11 11 6 7 6 4 6 6 2 4 1 3 1 3 4 5 3 4 4 4 11 8 11 6 4 4 4 4 2 3 5 3 3 4 2 3 5 11 15 15 4 6 10
13 11 15 13 11 11 8 7 8 7 7 7 2 13 4 3 6 6 7 8 5 4 4 9 4 5 5 4 4 4 4 5 3 6 4 4 3 2 1 1 2 16 7 6 5 9 9
14 9 13 13 10 13 8 9 10 9 7 13 3 12 7 2 4 3 8 13 13 9 6 2 5 3 4 3 3 3 2 3 4 2 7 2 5 4 5 3 5 7 10 9 11 8 9
Wind_Direction
119 113 95 104 80 57 42 43 21 4 2 3 355 349 342 339 333 329 325 320 314 309 308 305 305 312 312 245 251 281 322 302 289 213 226 220 211 214 225 232 229 230 247 218 244 244 255
121 111 127 104 81 54 31 24 357 357 3 1 355 351 345 337 330 325 320 315 309 304 303 299 295 290 261 256 286 267 271 289 261 239 227 226 228 219 255 237 230 224 234 246 235 242 254
129 99 107 96 78 38 17 356 349 4 360 358 343 345 337 330 327 326 322 316 305 300 303 298 286 252 243 244 274 262 272 272 268 261 246 231 231 230 226 251 238 249 250 245 235 231 234
128 107 100 88 64 52 33 11 1 1 359 349 343 342 339 333 329 327 322 314 305 304 305 298 264 199 253 256 266 264 267 260 245 247 247 254 276 249 241 238 235 225 235 248 236 230 240
138 124 117 94 67 35 2 347 10 8 350 343 344 340 339 334 331 327 321 309 299 304 288 157 156 205 271 145 242 256 256 251 235 221 224 239 221 222 206 231 230 216 237 220 246 214 224
147 115 86 82 47 32 7 15 14 0 343 339 344 340 337 334 332 328 319 302 290 272 235 236 347 224 245 231 315 315 294 248 245 175 190 204 213 211 219 214 225 222 222 244 240 219 217
129 126 95 85 71 16 8 12 4 345 339 340 343 339 338 333 329 326 318 316 354 227 356 272 279 269 276 280 283 271 221 280 217 192 193 189 200 212 213 220 235 262 260 253 249 228 257
145 132 98 97 58 25 8 346 345 341 345 346 346 343 336 329 323 319 313 21 45 305 296 261 260 261 266 279 278 262 241 253 203 204 201 169 219 217 221 214 228 235 245 247 261 268 269
150 125 116 96 58 30 344 349 343 342 345 344 344 340 340 330 323 287 333 16 340 336 273 302 257 258 276 225 242 259 229 216 227 206 192 198 219 219 212 213 219 227 239 248 256 284 273
147 145 129 113 133 0 353 353 342 345 345 340 342 340 342 335 283 339 335 332 327 323 286 277 213 139 342 261 253 237 244 215 216 211 196 223 170 191 198 214 210 227 222 251 250 259 255
155 132 158 164 34 36 9 350 352 351 346 341 334 335 337 347 312 311 323 322 316 198 288 63 134 124 352 257 312 125 212 216 221 191 189 186 187 190 195 214 205 236 178 226 232 244 277
153 179 185 157 45 11 9 347 350 346 341 332 328 332 329 287 285 296 319 310 266 235 255 299 310 318 322 304 273 272 194 229 228 188 204 134 181 180 176 168 186 147 154 169 215 242 250
174 172 127 148 64 25 326 342 343 338 339 324 322 328 320 314 320 328 311 289 243 240 339 340 334 320 310 292 276 191 187 195 185 185 181 168 158 130 159 129 157 179 171 169 190 201 245
194 157 192 165 87 0 340 344 338 335 334 322 324 324 353 337 325 315 289 266 265 326 329 335 326 313 340 347 252 191 192 187 210 201 169 171 173 161 176 183 181 189 192 235 227 197 160
180 171 203 173 268 330 356 348 332 337 329 321 316 344 357 355 321 277 278 285 326 334 340 327 324 338 337 318 305 175 192 186 197 204 183 180 123 162 179 169 166 171 215 270 262 187 260
170 169 215 184 241 331 348 340 333 334 323 323 332 314 29 349 342 278 313 317 301 322 316 320 317 338 322 321 325 167 169 186 183 208 236 167 124 183 144 145 96 231 139 171 200 208 224
167 187 207 177 225 322 343 342 340 329 315 317 313 261 39 340 300 282 340 328 318 322 314 305 313 306 294 307 332 284 144 153 184 169 194 163 163 156 158 205 168 156 170 203 65 301 282
171 200 216 197 204 313 344 354 346 334 192 298 319 39 16 318 342 3 332 334 319 317 324 305 269 280 271 293 286 256 112 55 186 181 161 161 149 151 150 108 153 161 162 192 247 179 158
198 210 200 194 177 279 346 350 349 274 249 315 14 9 118 299 15 354 343 338 309 308 333 310 278 289 289 282 276 73 59 41 97 128 131 157 156 140 140 132 167 180 151 93 82 332 227
192 208 224 173 166 193 346 330 343 246 162 315 58 94 105 106 73 326 350 360 358 337 313 328 301 297 318 295 39 41 56 50 31 50 31 60 118 249 171 135 141 149 160 160 160 182 300
196 207 198 179 169 229 300 302 326 215 164 230 10 80 52 352 72 336 336 343 359 358 340 318 284 354 346 348 12 20 26 40 27 21 21 27 89 93 88 101 115 138 153 166 229 253 259
207 212 180 168 182 233 266 285 315 184 165 218 133 222 171 279 296 318 350 348 355 347 305 338 354 340 339 15 3 343 346 14 58 184 106 321 62 111 79 110 119 138 170 279 245 263 293
204 204 190 183 218 214 257 273 304 175 185 157 122 165 285 301 322 323 24 331 318 326 310 338 341 336 352 346 326 306 289 284 296 347 26 102 177 138 101 40 326 141 108 29 35 2 350
206 197 197 208 192 217 250 263 291 189 202 158 142 196 262 316 317 349 320 315 316 326 309 318 343 348 337 322 307 244 224 257 341 16 1 98 88 30 106 202 120 76 29 72 1 52 19
200 207 207 205 206 215 229 252 285 207 194 221 148 225 252 299 311 331 348 338 314 317 328 320 346 331 320 316 335 360 90 78 34 34 57 11 18 89 96 62 113 117 39 11 3 56 27
204 218 208 199 206 226 222 240 270 210 199 128 168 287 263 302 87 327 325 339 345 345 340 359 337 333 338 313 337 6 39 340 47 91 38 24 10 8 162 85 111 50 350 332 307 165 15
212 217 204 202 208 213 222 241 249 244 206 156 168 165 112 272 282 250 334 343 337 335 306 321 347 342 351 351 18 14 46 327 18 33 31 46 36 35 43 46 99 360 344 323 244 26 14
218 228 203 196 208 209 220 241 248 250 263 163 156 179 186 243 279 239 263 278 284 284 313 340 304 24 353 20 354 20 348 24 311 49 359 19 327 77 17 320 117 352 345 19 357 39 35
203 198 211 200 212 206 220 246 245 247 246 202 159 189 180 210 324 306 278 271 264 282 292 293 335 2 19 332 26 288 316 359 337 65 23 65 8 0 26 55 51 24 57 44 52 64 35